Nebraska City, NE

4:52 PM CDT on March 24, 2017 (GMT -0500)
Nebraska City Municipal

Weather History for KAFK - November, 2013

Change the Weather History Date:

Monday, November 18, 2013

  Actual Average (KSDA) Record (KSDA)
Temperature  
Mean Temperature 42 °F -  
Max Temperature 57 °F 51 °F 77 °F (1999)
Min Temperature 28 °F 31 °F 5 °F (2014)
Degree Days  
Heating Degree Days 22    
Moisture  
Dew Point 27 °F    
Average Humidity 61    
Maximum Humidity 94    
Minimum Humidity 28    
Precipitation  
Precipitation 0.00 in - - ()
Sea Level Pressure  
Sea Level Pressure 30.18 in    
Wind  
Wind Speed 8 mph (WSW)    
Max Wind Speed 16 mph    
Max Gust Speed 20 mph    
Visibility 10 miles    
Events      
Averages and records for this station are not official NWS values.
T = Trace of Precipitation, MM = Missing Value Source: NWS Daily Summary

Daily Weather History Graph

Daily Weather History Graph

Search for Another Location

Airport or City:

Trip Planner

Search our weather history database for the weather conditions in past years. The results will help you decide how hot, cold, wet, or windy it might be!

Date:

Astronomy

Nov. 18, 2013 Rise Set
Actual Time 7:13 AM CST 5:03 PM CST
Civil Twilight 6:44 AM CST 5:32 PM CST
Nautical Twilight 6:11 AM CST 6:05 PM CST
Astronomical Twilight 5:38 AM CST 6:38 PM CST
Moon 6:06 PM CST (11/18) 8:03 AM CST (11/18)
Length of Visible Light 10h 48m
Length of Day
9h 49m
Full, 99% of the Moon is Illuminated
Nov 18
Full
Nov 25
Last Quarter
Dec 2
New
Dec 9
First Quarter
Dec 17
Full

Hourly Weather History & Observations

Time (CST) Temp. Windchill Dew Point Humidity Pressure Visibility Wind Dir Wind Speed Gust Speed Precip Events Conditions
12:15 AM 37.4 °F 31.4 °F 33.3 °F 85% 30.08 in 10.0 mi WNW 8.1 mph - N/A   Clear
12:35 AM 37.0 °F 30.4 °F 33.1 °F 86% 30.08 in 10.0 mi WNW 9.2 mph - N/A   Clear
12:55 AM 37.4 °F 30.3 °F 33.3 °F 85% 30.07 in 10.0 mi WNW 10.4 mph - N/A   Clear
1:15 AM 36.7 °F 29.9 °F 32.9 °F 86% 30.08 in 10.0 mi West 9.2 mph - N/A   Clear
1:35 AM 35.6 °F 28.6 °F 32.0 °F 87% 30.09 in 10.0 mi West 9.2 mph - N/A   Clear
1:55 AM 34.7 °F 28.1 °F 32.0 °F 90% 30.09 in 10.0 mi West 8.1 mph - N/A   Clear
2:15 AM 35.1 °F 29.3 °F 31.8 °F 88% 30.10 in 10.0 mi WNW 6.9 mph - N/A   Clear
2:35 AM 33.8 °F 27.7 °F 31.1 °F 90% 30.09 in 10.0 mi NNW 6.9 mph - N/A   Clear
2:55 AM 34.7 °F 31.8 °F 30.7 °F 85% 30.10 in 10.0 mi NW 3.5 mph - N/A   Clear
3:15 AM 33.8 °F - 29.7 °F 85% 30.11 in 10.0 mi Calm Calm - N/A   Clear
3:35 AM 33.3 °F 27.9 °F 29.7 °F 87% 30.11 in 10.0 mi NW 5.8 mph - N/A   Clear
3:55 AM 32.0 °F 25.6 °F 28.8 °F 88% 30.10 in 10.0 mi WNW 6.9 mph - N/A   Clear
4:15 AM 32.0 °F 25.6 °F 28.9 °F 88% 30.11 in 10.0 mi WNW 6.9 mph - N/A   Clear
4:35 AM 31.8 °F 26.2 °F 28.2 °F 87% 30.12 in 10.0 mi West 5.8 mph - N/A   Clear
4:55 AM 30.2 °F 24.3 °F 27.5 °F 90% 30.12 in 10.0 mi WNW 5.8 mph - N/A   Clear
5:15 AM 30.2 °F 25.4 °F 27.5 °F 90% 30.13 in 10.0 mi West 4.6 mph - N/A   Clear
5:35 AM 29.5 °F 23.4 °F 26.8 °F 90% 30.14 in 10.0 mi WSW 5.8 mph - N/A   Clear
5:55 AM 28.0 °F 20.8 °F 26.6 °F 94% 30.15 in 10.0 mi WSW 6.9 mph - N/A   Clear
6:15 AM 28.8 °F 21.7 °F 27.0 °F 93% 30.16 in 10.0 mi West 6.9 mph - N/A   Clear
6:35 AM 29.1 °F 22.1 °F 26.6 °F 90% 30.17 in 10.0 mi West 6.9 mph - N/A   Clear
6:55 AM 29.3 °F 23.2 °F 26.2 °F 88% 30.18 in 10.0 mi West 5.8 mph - N/A   Clear
7:15 AM 30.0 °F 24.1 °F 26.4 °F 86% 30.20 in 10.0 mi West 5.8 mph - N/A   Clear
7:35 AM 30.0 °F 25.2 °F 26.1 °F 85% 30.21 in 10.0 mi West 4.6 mph - N/A   Clear
7:55 AM 30.2 °F 24.3 °F 26.4 °F 86% 30.21 in 10.0 mi WNW 5.8 mph - N/A   Clear
8:15 AM 32.0 °F 28.7 °F 28.0 °F 85% 30.22 in 10.0 mi WSW 3.5 mph - N/A   Clear
8:35 AM 32.9 °F 26.7 °F 28.9 °F 85% 30.23 in 10.0 mi West 6.9 mph - N/A   Clear
8:55 AM 35.1 °F 28.6 °F 29.8 °F 81% 30.24 in 10.0 mi WSW 8.1 mph - N/A   Clear
9:15 AM 36.9 °F 30.7 °F 29.7 °F 75% 30.25 in 10.0 mi WSW 8.1 mph - N/A   Clear
9:35 AM 38.3 °F 32.5 °F 29.8 °F 72% 30.26 in 10.0 mi WSW 8.1 mph - N/A   Clear
9:55 AM 40.6 °F 35.4 °F 29.7 °F 65% 30.26 in 10.0 mi West 8.1 mph - N/A   Clear
10:15 AM 42.3 °F 36.8 °F 29.8 °F 61% 30.27 in 10.0 mi WSW 9.2 mph - N/A   Clear
10:35 AM 43.7 °F 39.1 °F 29.5 °F 57% 30.27 in 10.0 mi WSW 8.1 mph - N/A   Clear
10:55 AM 46.0 °F 42.5 °F 27.7 °F 49% 30.27 in 10.0 mi WSW 6.9 mph - N/A   Clear
11:15 AM 46.6 °F - 29.3 °F 51% 30.26 in 10.0 mi SW 4.6 mph - N/A   Clear
11:35 AM 48.2 °F - 29.1 °F 48% 30.26 in 10.0 mi WSW 5.8 mph - N/A   Clear
11:55 AM 49.6 °F - 29.3 °F 46% 30.25 in 10.0 mi SW 6.9 mph - N/A   Clear
12:15 PM 51.6 °F - 28.2 °F 41% 30.24 in 10.0 mi WSW 9.2 mph - N/A   Clear
12:35 PM 52.9 °F - 27.7 °F 38% 30.24 in 10.0 mi West 11.5 mph - N/A   Clear
12:55 PM 53.1 °F - 26.6 °F 36% 30.23 in 10.0 mi WSW 12.7 mph 18.4 mph N/A   Clear
1:15 PM 54.5 °F - 26.4 °F 34% 30.23 in 10.0 mi WSW 9.2 mph - N/A   Clear
1:35 PM 55.4 °F - 26.6 °F 33% 30.22 in 10.0 mi WSW 16.1 mph 19.6 mph N/A   Clear
1:55 PM 55.6 °F - 26.2 °F 32% 30.21 in 10.0 mi WSW 13.8 mph - N/A   Clear
2:15 PM 56.5 °F - 25.5 °F 30% 30.20 in 10.0 mi WSW 10.4 mph 16.1 mph N/A   Clear
2:35 PM 56.8 °F - 24.6 °F 29% 30.19 in 10.0 mi West 9.2 mph - N/A   Clear
2:55 PM 57.2 °F - 24.8 °F 29% 30.19 in 10.0 mi WSW 9.2 mph - N/A   Clear
3:15 PM 56.8 °F - 24.1 °F 28% 30.19 in 10.0 mi WSW 8.1 mph - N/A   Clear
3:35 PM 57.2 °F - 23.7 °F 28% 30.18 in 10.0 mi West 11.5 mph - N/A   Clear
3:55 PM 56.8 °F - 23.9 °F 28% 30.19 in 10.0 mi WSW 10.4 mph - N/A   Clear
4:15 PM 56.1 °F - 24.4 °F 29% 30.19 in 10.0 mi WSW 8.1 mph - N/A   Clear
4:35 PM 54.3 °F - 24.3 °F 31% 30.18 in 10.0 mi SW 5.8 mph - N/A   Clear
4:55 PM 50.7 °F - 24.1 °F 35% 30.18 in 10.0 mi SSW 5.8 mph - N/A   Clear
5:15 PM 50.0 °F - 23.0 °F 35% 30.19 in 10.0 mi SSW 4.6 mph - N/A   Clear
5:35 PM 48.6 °F - 22.8 °F 36% 30.19 in 10.0 mi SSW 5.8 mph - N/A   Clear
5:55 PM 47.1 °F - 22.8 °F 38% 30.19 in 10.0 mi South 5.8 mph - N/A   Clear
6:15 PM 47.1 °F - 22.8 °F 38% 30.19 in 10.0 mi South 5.8 mph - N/A   Clear
6:35 PM 45.7 °F 42.7 °F 23.4 °F 41% 30.19 in 10.0 mi South 5.8 mph - N/A   Clear
6:55 PM 43.5 °F 39.4 °F 23.2 °F 45% 30.19 in 10.0 mi SSW 6.9 mph - N/A   Clear
7:15 PM 42.1 °F 37.1 °F 23.7 °F 48% 30.19 in 10.0 mi SSW 8.1 mph - N/A   Clear
7:35 PM 42.6 °F 37.2 °F 24.4 °F 49% 30.19 in 10.0 mi SSW 9.2 mph - N/A   Clear
7:55 PM 42.1 °F 36.6 °F 24.6 °F 50% 30.19 in 10.0 mi SSW 9.2 mph - N/A   Clear
8:15 PM 42.8 °F 37.5 °F 24.4 °F 48% 30.19 in 10.0 mi SSW 9.2 mph - N/A   Clear
8:35 PM 42.8 °F 38.0 °F 24.3 °F 48% 30.19 in 10.0 mi SSW 8.1 mph - N/A   Clear
8:55 PM 41.4 °F 35.7 °F 24.4 °F 51% 30.20 in 10.0 mi SSW 9.2 mph - N/A   Clear
9:15 PM 41.0 °F 35.8 °F 24.3 °F 51% 30.20 in 10.0 mi South 8.1 mph - N/A   Clear
9:35 PM 42.1 °F 36.6 °F 24.4 °F 50% 30.20 in 10.0 mi South 9.2 mph - N/A   Clear
10:15 PM 39.2 °F 33.0 °F 24.6 °F 56% 30.21 in 10.0 mi South 9.2 mph - N/A   Clear
10:35 PM 40.1 °F 33.6 °F 24.8 °F 54% 30.20 in 10.0 mi South 10.4 mph - N/A   Clear
11:15 PM 41.0 °F 34.7 °F 24.6 °F 52% 30.20 in 10.0 mi South 10.4 mph - N/A   Clear
11:35 PM 41.2 °F 34.5 °F 24.6 °F 52% 30.20 in 10.0 mi South 11.5 mph - N/A   Clear
11:55 PM 41.0 °F 34.3 °F 24.4 °F 52% 30.20 in 10.0 mi South 11.5 mph - N/A   Clear